When you browse on this site, cookies collect data to enhance your experience and personalize the content and advertising you see.
Visit our Privacy Policy to learn more. By continuing to use the site, you agree to this use of cookies and data.
  • In Hungary
  • List of Countries
  • For 7 days
  • Water Temperature
  • Satellite Maps
  • Weather Map
  • News
  • Weather Widgets
  • user-avatar
    Login

    Hourly Weather Sadowo

    Today, 19 February, Tuesday

    Time Temperature Precipitation Wind Pressure Humidity
    00:00 +5°C° 0 mm 2 mps 756 mmHg 67%
    01:00 +4°C° 0 mm 3 mps 755 mmHg 66%
    02:00 +4°C° 0 mm 3 mps 755 mmHg 67%
    03:00 +4°C° 0 mm 3 mps 755 mmHg 68%
    04:00 +4°C° 0 mm 4 mps 754 mmHg 69%
    05:00 +4°C° 0 mm 4 mps 754 mmHg 70%
    06:00 +4°C° 0 mm 4 mps 754 mmHg 71%
    07:00 +3°C° 0 mm 4 mps 754 mmHg 72%
    08:00 +5°C° 0 mm 4 mps 754 mmHg 70%
    09:00 +6°C° 0 mm 5 mps 754 mmHg 67%
    10:00 +7°C° 0 mm 5 mps 754 mmHg 65%
    11:00 +8°C° 0 mm 5 mps 754 mmHg 65%
    12:00 +9°C° 0 mm 5 mps 754 mmHg 64%
    13:00 +10°C° 0 mm 6 mps 754 mmHg 64%
    14:00 +10°C° 0.1 mm 5 mps 754 mmHg 67%
    15:00 +9°C° 0.1 mm 5 mps 754 mmHg 69%
    16:00 +9°C° 0.1 mm 5 mps 754 mmHg 72%
    17:00 +8°C° 0 mm 4 mps 754 mmHg 74%
    18:00 +7°C° 0 mm 4 mps 754 mmHg 76%
    19:00 +7°C° 0 mm 3 mps 755 mmHg 78%
    20:00 +6°C° 0 mm 4 mps 755 mmHg 78%
    21:00 +6°C° 0 mm 4 mps 755 mmHg 77%
    22:00 +5°C° 0 mm 4 mps 755 mmHg 76%
    23:00 +5°C° 0 mm 4 mps 755 mmHg 79%

    Tomorrow, 20 February, Wednesday

    Time Temperature Precipitation Wind Pressure Humidity
    00:00 +5°C° 0 mm 4 mps 756 mmHg 81%
    01:00 +4°C° 0 mm 4 mps 756 mmHg 84%
    02:00 +3°C° 0 mm 5 mps 756 mmHg 84%
    03:00 +3°C° 0 mm 5 mps 756 mmHg 85%
    04:00 +3°C° 0 mm 5 mps 756 mmHg 86%
    05:00 +3°C° 0 mm 5 mps 756 mmHg 86%
    06:00 +3°C° 0 mm 5 mps 757 mmHg 86%
    07:00 +4°C° 0 mm 4 mps 757 mmHg 86%
    08:00 +3°C° 0 mm 5 mps 757 mmHg 84%
    09:00 +3°C° 0 mm 5 mps 758 mmHg 82%
    10:00 +5°C° 0 mm 5 mps 758 mmHg 80%
    11:00 +5°C° 0 mm 5 mps 758 mmHg 78%
    12:00 +5°C° 0 mm 5 mps 759 mmHg 76%
    13:00 +6°C° 0 mm 5 mps 759 mmHg 74%
    14:00 +6°C° 0 mm 4 mps 759 mmHg 73%
    15:00 +6°C° 0 mm 4 mps 759 mmHg 72%
    16:00 +8°C° 0 mm 3 mps 759 mmHg 71%
    17:00 +7°C° 0 mm 3 mps 759 mmHg 74%
    18:00 +7°C° 0 mm 3 mps 760 mmHg 78%
    19:00 +7°C° 0 mm 2 mps 760 mmHg 81%
    20:00 +6°C° 0 mm 2 mps 760 mmHg 83%
    21:00 +6°C° 0 mm 2 mps 760 mmHg 85%
    22:00 +6°C° 0 mm 2 mps 761 mmHg 87%
    23:00 +5°C° 0 mm 3 mps 761 mmHg 85%

    Day after tomorrow, 21 February, Thursday

    Time Temperature Precipitation Wind Pressure Humidity
    00:00 +5°C° 0 mm 3 mps 761 mmHg 84%
    01:00 +4°C° 0 mm 3 mps 761 mmHg 82%
    02:00 +5°C° 0.1 mm 3 mps 760 mmHg 82%
    03:00 +5°C° 0.1 mm 4 mps 760 mmHg 82%
    04:00 +5°C° 0.1 mm 4 mps 760 mmHg 82%
    05:00 +5°C° 0.3 mm 4 mps 760 mmHg 84%
    06:00 +5°C° 0.3 mm 5 mps 760 mmHg 85%
    07:00 +5°C° 0.3 mm 5 mps 760 mmHg 87%
    08:00 +5°C° 0.1 mm 5 mps 760 mmHg 84%
    09:00 +6°C° 0.1 mm 5 mps 760 mmHg 82%
    10:00 +5°C° 0.1 mm 6 mps 760 mmHg 80%
    11:00 +7°C° 0.5 mm 6 mps 760 mmHg 80%
    12:00 +7°C° 0.5 mm 6 mps 760 mmHg 80%
    13:00 +7°C° 0.5 mm 6 mps 760 mmHg 80%
    14:00 +7°C° 1.1 mm 6 mps 760 mmHg 83%
    15:00 +6°C° 1.1 mm 5 mps 760 mmHg 85%
    16:00 +6°C° 1.1 mm 5 mps 760 mmHg 87%
    17:00 +6°C° 0.1 mm 5 mps 760 mmHg 88%
    18:00 +7°C° 0.1 mm 5 mps 760 mmHg 88%
    19:00 +7°C° 0.1 mm 5 mps 760 mmHg 89%
    20:00 +7°C° 0.2 mm 5 mps 760 mmHg 89%
    21:00 +7°C° 0.2 mm 5 mps 761 mmHg 89%
    22:00 +7°C° 0.2 mm 5 mps 761 mmHg 88%
    23:00 +7°C° 0.1 mm 5 mps 761 mmHg 88%

    22 February, Friday

    Time Temperature Precipitation Wind Pressure Humidity
    00:00 +7°C° 0.1 mm 5 mps 762 mmHg 87%
    01:00 +7°C° 0.1 mm 6 mps 762 mmHg 87%
    02:00 +7°C° 0.1 mm 5 mps 763 mmHg 87%
    03:00 +6°C° 0.1 mm 5 mps 763 mmHg 87%
    04:00 +6°C° 0.1 mm 5 mps 764 mmHg 87%
    05:00 +5°C° 0.1 mm 5 mps 765 mmHg 84%
    06:00 +3°C° 0.1 mm 5 mps 766 mmHg 81%
    07:00 +2°C° 0.1 mm 5 mps 766 mmHg 79%
    08:00 +1°C° 0 mm 5 mps 767 mmHg 75%
    09:00 +1°C° 0 mm 4 mps 768 mmHg 71%
    10:00 0°C° 0 mm 4 mps 769 mmHg 68%
    11:00 +1°C° 0 mm 4 mps 770 mmHg 63%
    12:00 +2°C° 0 mm 3 mps 770 mmHg 58%
    13:00 +3°C° 0 mm 3 mps 771 mmHg 52%
    14:00 +3°C° 0 mm 3 mps 771 mmHg 50%
    15:00 +3°C° 0 mm 3 mps 771 mmHg 48%
    16:00 +3°C° 0 mm 3 mps 772 mmHg 46%
    17:00 +3°C° 0 mm 2 mps 772 mmHg 51%
    18:00 +2°C° 0 mm 2 mps 772 mmHg 56%
    19:00 +2°C° 0 mm 1 mps 773 mmHg 60%
    20:00 +1°C° 0 mm 1 mps 773 mmHg 61%
    21:00 +1°C° 0 mm 1 mps 773 mmHg 61%
    22:00 +1°C° 0 mm 1 mps 774 mmHg 62%
    23:00 0°C° 0 mm 1 mps 774 mmHg 61%

    23 February, Saturday

    Time Temperature Precipitation Wind Pressure Humidity
    00:00 0°C° 0 mm 1 mps 774 mmHg 60%
    01:00 -1°C° 0 mm 0 mps 774 mmHg 59%
    02:00 -1°C° 0 mm 0 mps 774 mmHg 59%
    03:00 -1°C° 0 mm 0 mps 773 mmHg 58%
    04:00 -1°C° 0 mm 0 mps 773 mmHg 57%
    05:00 -1°C° 0 mm 0 mps 773 mmHg 57%
    06:00 -1°C° 0 mm 0 mps 773 mmHg 57%
    07:00 -1°C° 0 mm 0 mps 773 mmHg 56%
    08:00 0°C° 0 mm 0 mps 773 mmHg 52%
    09:00 +2°C° 0 mm 1 mps 773 mmHg 47%
    10:00 +3°C° 0 mm 1 mps 773 mmHg 43%
    11:00 +3°C° 0 mm 0 mps 773 mmHg 41%
    12:00 +4°C° 0 mm 0 mps 773 mmHg 40%
    13:00 +5°C° 0 mm 0 mps 772 mmHg 38%
    14:00 +5°C° 0 mm 0 mps 772 mmHg 40%
    15:00 +6°C° 0 mm 1 mps 772 mmHg 42%
    16:00 +6°C° 0 mm 1 mps 771 mmHg 44%
    17:00 +5°C° 0 mm 1 mps 771 mmHg 48%
    18:00 +2°C° 0 mm 0 mps 771 mmHg 53%
    19:00 +1°C° 0 mm 0 mps 771 mmHg 57%
    20:00 +1°C° 0 mm 0 mps 771 mmHg 58%
    21:00 +2°C° 0 mm 0 mps 771 mmHg 58%
    22:00 +3°C° 0 mm 1 mps 771 mmHg 59%
    23:00 +3°C° 0 mm 1 mps 771 mmHg 61%

    24 February, Sunday

    Time Temperature Precipitation Wind Pressure Humidity
    00:00 +3°C° 0 mm 1 mps 771 mmHg 62%
    01:00 +3°C° 0 mm 1 mps 771 mmHg 64%
    02:00 +3°C° 0 mm 1 mps 771 mmHg 65%
    03:00 +3°C° 0 mm 1 mps 771 mmHg 67%
    04:00 +3°C° 0 mm 1 mps 771 mmHg 68%
    05:00 +3°C° 0 mm 1 mps 771 mmHg 72%
    06:00 +1°C° 0 mm 0 mps 771 mmHg 76%
    07:00 +1°C° 0 mm 0 mps 771 mmHg 80%
    08:00 +2°C° 0 mm 0 mps 771 mmHg 76%
    09:00 +3°C° 0 mm 0 mps 772 mmHg 72%
    10:00 +5°C° 0 mm 0 mps 772 mmHg 67%
    11:00 +7°C° 0 mm 1 mps 772 mmHg 65%
    12:00 +8°C° 0 mm 1 mps 772 mmHg 63%
    13:00 +9°C° 0 mm 1 mps 772 mmHg 61%
    14:00 +9°C° 0 mm 1 mps 772 mmHg 61%
    15:00 +9°C° 0 mm 1 mps 772 mmHg 62%
    16:00 +8°C° 0 mm 0 mps 771 mmHg 62%
    17:00 +8°C° 0 mm 1 mps 771 mmHg 67%
    18:00 +7°C° 0 mm 1 mps 771 mmHg 71%
    19:00 +5°C° 0 mm 1 mps 772 mmHg 76%
    20:00 +5°C° 0 mm 1 mps 772 mmHg 77%
    21:00 +4°C° 0 mm 1 mps 772 mmHg 77%
    22:00 +4°C° 0 mm 1 mps 771 mmHg 78%
    23:00 +4°C° 0 mm 1 mps 771 mmHg 78%
    Show more